Lid_Strength_Index
6 6 6 6 6 5 5 5 4 4 4 4 4 3 3 3 3 5 7 4 3 2 3 4 5 5 5 7 5 5 10 12 11 10 8 5 7 4 3 5 4 4 4 3 2
6 6 6 6 6 6 5 5 5 5 4 4 4 4 3 3 5 7 5 3 2 2 5 6 7 6 7 8 8 8 10 11 8 7 8 6 6 6 6 6 5 5 4 3 2
6 6 6 6 6 6 5 5 5 5 5 4 4 4 3 4 7 8 4 2 2 3 4 5 6 7 9 7 9 9 11 9 9 7 7 7 6 5 6 7 5 6 4 4 4
6 6 6 6 6 6 5 5 5 5 5 4 4 3 3 6 13 7 4 3 3 4 5 6 7 9 10 10 8 10 9 9 8 8 8 9 7 7 6 6 4 4 3 3 4
6 6 6 6 6 6 6 5 5 5 5 4 4 3 6 9 9 5 4 4 5 5 6 7 8 9 10 9 9 10 9 8 7 6 6 6 7 7 6 4 3 4 3 4 4
6 7 6 6 6 6 6 6 5 5 5 5 4 4 7 12 6 5 5 5 6 6 7 7 8 7 9 10 10 8 8 7 7 7 7 8 7 6 6 3 4 4 4 4 4
6 6 6 6 6 6 6 6 5 5 5 5 4 5 8 10 5 5 6 6 6 6 7 6 6 7 8 9 7 7 10 8 7 7 8 7 9 8 5 4 5 4 5 4 4
6 6 6 6 6 6 6 6 5 6 5 5 4 6 10 6 5 6 6 6 5 5 6 5 5 7 8 6 8 9 9 12 8 8 8 8 11 7 4 5 5 5 5 5 4
6 6 6 6 6 6 6 6 6 6 5 4 6 8 11 6 8 7 6 7 7 6 5 5 5 7 8 11 11 10 14 12 11 8 8 8 10 7 5 6 6 6 6 6 5
7 6 7 7 7 6 6 7 7 7 6 6 7 11 10 11 8 7 6 6 8 7 7 7 7 9 9 11 17 15 15 13 14 10 9 10 10 8 6 7 7 7 6 7 6
7 7 7 7 7 6 8 9 12 12 10 12 12 12 11 9 7 8 7 7 8 9 12 9 11 12 11 10 10 11 13 14 12 9 11 11 10 9 7 7 8 9 8 9 7
7 7 7 7 7 8 9 11 12 11 14 12 11 11 10 9 11 9 6 10 10 13 11 12 13 10 9 9 10 11 14 14 11 10 10 11 12 9 8 8 7 9 9 9 9
7 7 7 7 7 9 10 11 9 9 14 13 11 11 10 9 11 10 8 9 11 13 13 13 12 10 10 10 12 12 14 14 14 11 10 12 14 12 9 9 8 10 9 10 10
7 7 7 7 10 10 13 10 9 9 16 16 14 12 11 10 12 9 8 9 11 13 12 13 11 12 11 11 11 14 10 12 13 14 17 12 19 14 12 12 11 11 10 10 10
7 7 7 9 11 12 11 9 9 11 18 16 14 10 11 12 12 11 8 9 13 13 12 14 13 12 12 11 9 12 10 11 12 14 14 15 17 15 14 14 13 11 11 11 10
7 7 7 9 10 10 9 9 11 16 20 17 14 14 14 13 12 11 11 9 10 13 13 13 11 11 11 10 9 9 10 11 11 14 18 16 16 16 15 15 13 11 11 10 11
7 7 9 10 12 9 9 12 16 17 17 17 16 15 14 15 14 13 14 14 14 16 16 13 13 11 11 11 9 9 11 17 18 19 20 15 16 16 14 12 11 11 10 10 10
6 7 9 9 8 9 11 15 19 20 19 16 15 15 16 15 15 14 15 15 13 14 15 17 17 12 11 11 12 11 12 16 22 20 19 14 17 15 12 11 11 10 9 9 9
7 9 9 9 9 10 13 18 17 19 17 16 16 17 17 15 15 15 16 15 14 13 16 16 16 12 12 11 11 12 13 11 15 17 17 16 15 13 12 12 12 11 11 11 10
10 11 11 9 9 11 15 18 18 18 15 15 18 16 18 17 16 16 17 15 15 12 12 14 17 13 12 10 10 11 10 14 14 20 21 18 17 16 14 13 13 13 12 12 11
11 14 11 9 10 13 17 18 18 15 14 15 16 17 16 16 15 16 16 15 14 13 12 13 15 15 12 13 14 12 12 12 12 14 18 19 17 12 12 12 13 13 12 12 11
12 16 10 10 15 18 18 19 17 16 14 15 14 15 15 15 16 16 16 15 12 12 14 13 15 17 15 13 13 12 13 12 14 17 15 16 16 10 11 11 12 12 12 11 11
14 14 10 12 18 19 20 19 17 16 15 15 15 14 14 15 17 15 15 13 12 12 14 12 17 18 17 14 13 14 12 12 12 12 15 16 15 11 11 11 12 12 12 11 11
14 17 15 13 15 17 19 19 19 16 15 15 15 14 15 16 15 16 15 13 12 12 11 11 15 17 18 17 15 16 14 12 13 15 14 14 13 12 11 12 12 12 11 11 11
14 16 15 19 17 17 17 18 19 19 16 15 16 15 15 17 16 16 15 14 13 11 13 13 17 17 16 16 16 15 15 14 13 13 14 13 12 11 10 10 10 11 11 11 11
17 16 16 16 16 17 17 19 18 18 17 17 17 15 14 16 15 16 15 15 15 13 14 15 17 18 19 17 17 19 16 15 14 12 12 12 12 9 9 9 9 10 10 11 10
12 13 13 16 17 18 17 18 17 16 16 15 15 15 15 14 13 14 13 13 13 13 14 16 18 19 19 21 21 20 18 16 14 12 11 13 10 9 11 10 10 10 9 10 9